IRVINE01

Last updated on Wed Feb 01 2023 00:03:43 GMT+0000 (Coordinated Universal Time)

1 43693U 18088D 23030.35249954 .03896949 -14284-5 25952-2 0 9997 2 43693 84.9959 153.4037 0014133 312.7811 47.2292 16.16780355235423

Satellite not in orbit